{"data":{"norad_id":68223,"intl_designator":"2026-053S","name":"STARLINK-37025","alt_names":[],"object_type":"PAYLOAD","status":"ACTIVE","operator":null,"country":"US","launch_date":"2026-03-17","launch_site_code":"AFWTR","launch_vehicle":null,"mission":null,"orbit_class":"UNKNOWN","rcs_meters":null,"size_class":null,"mass_kg":null,"dimensions":null,"purposes":["comms"],"wikipedia_slug":null,"has_3d_model":false,"image_url":null,"decayed_at":null,"tle_current":{"epoch":"2026-05-25T02:51:22.877856Z","epoch_age_seconds":64500,"freshness":"FRESH","line1":"1 68223U 26053S   26145.11901479  .00014052  00000+0  43667-3 0  9997","line2":"2 68223  97.2889  20.6079 0001389  87.0375 273.1027 15.33453382 11934","mean_motion":15.33453382,"eccentricity":0.0001389,"inclination_deg":97.2889,"raan_deg":20.6079,"arg_perigee_deg":87.0375,"mean_anomaly_deg":273.1027,"bstar":0.00043667,"rev_number":1193,"period_min":93.905691356713,"perigee_km":464.56765194474,"apogee_km":466.4688193692,"semimajor_km":6843.655235657,"source":"CELESTRAK","updated_at":"2026-05-25T13:38:21.880843Z"}}}